utcTime,localTime,pm25,nowcast
2022-09-09 15:00:00 +0000,2022-09-09 08:00:00 -0700,7.2,NA
2022-09-09 16:00:00 +0000,2022-09-09 09:00:00 -0700,9,8.2
2022-09-09 17:00:00 +0000,2022-09-09 10:00:00 -0700,12.9,10.7
2022-09-09 18:00:00 +0000,2022-09-09 11:00:00 -0700,16.2,13.7
2022-09-09 19:00:00 +0000,2022-09-09 12:00:00 -0700,18.3,16.1
2022-09-09 20:00:00 +0000,2022-09-09 13:00:00 -0700,18,17
2022-09-09 21:00:00 +0000,2022-09-09 14:00:00 -0700,15.9,16.4
2022-09-09 22:00:00 +0000,2022-09-09 15:00:00 -0700,17.3,16.8
2022-09-09 23:00:00 +0000,2022-09-09 16:00:00 -0700,22.5,19.7
2022-09-10 00:00:00 +0000,2022-09-09 17:00:00 -0700,18.9,19.3
2022-09-10 01:00:00 +0000,2022-09-09 18:00:00 -0700,14.3,16.7
2022-09-10 02:00:00 +0000,2022-09-09 19:00:00 -0700,11.8,14.2
2022-09-10 03:00:00 +0000,2022-09-09 20:00:00 -0700,7.5,10.8
2022-09-10 04:00:00 +0000,2022-09-09 21:00:00 -0700,6.1,8.4
2022-09-10 05:00:00 +0000,2022-09-09 22:00:00 -0700,5.6,7
2022-09-10 06:00:00 +0000,2022-09-09 23:00:00 -0700,5.6,6.3
2022-09-10 07:00:00 +0000,2022-09-10 00:00:00 -0700,6.2,6.2
2022-09-10 08:00:00 +0000,2022-09-10 01:00:00 -0700,7.4,6.8
2022-09-10 09:00:00 +0000,2022-09-10 02:00:00 -0700,7.2,7
2022-09-10 10:00:00 +0000,2022-09-10 03:00:00 -0700,7,7
2022-09-10 11:00:00 +0000,2022-09-10 04:00:00 -0700,7.4,7.2
2022-09-10 12:00:00 +0000,2022-09-10 05:00:00 -0700,7.3,7.2
2022-09-10 13:00:00 +0000,2022-09-10 06:00:00 -0700,7.5,7.3
2022-09-10 14:00:00 +0000,2022-09-10 07:00:00 -0700,8,7.4
2022-09-10 15:00:00 +0000,2022-09-10 08:00:00 -0700,7.9,7.5
2022-09-10 16:00:00 +0000,2022-09-10 09:00:00 -0700,8.8,8
2022-09-10 17:00:00 +0000,2022-09-10 10:00:00 -0700,8.4,8.2
2022-09-10 18:00:00 +0000,2022-09-10 11:00:00 -0700,10.5,9.1
2022-09-10 19:00:00 +0000,2022-09-10 12:00:00 -0700,20.5,14.9
2022-09-10 20:00:00 +0000,2022-09-10 13:00:00 -0700,17.2,16
2022-09-10 21:00:00 +0000,2022-09-10 14:00:00 -0700,15.4,15.7
2022-09-10 22:00:00 +0000,2022-09-10 15:00:00 -0700,16,15.8
2022-09-10 23:00:00 +0000,2022-09-10 16:00:00 -0700,18.6,17.2
2022-09-11 00:00:00 +0000,2022-09-10 17:00:00 -0700,25.7,21.4
2022-09-11 01:00:00 +0000,2022-09-10 18:00:00 -0700,25.3,23.3
2022-09-11 02:00:00 +0000,2022-09-10 19:00:00 -0700,29.3,26.3
2022-09-11 03:00:00 +0000,2022-09-10 20:00:00 -0700,28.7,27.5
2022-09-11 04:00:00 +0000,2022-09-10 21:00:00 -0700,27.1,27.3
2022-09-11 05:00:00 +0000,2022-09-10 22:00:00 -0700,27.2,27.2
2022-09-11 06:00:00 +0000,2022-09-10 23:00:00 -0700,28.6,27.8
2022-09-11 07:00:00 +0000,2022-09-11 00:00:00 -0700,27.7,27.7
2022-09-11 08:00:00 +0000,2022-09-11 01:00:00 -0700,26.7,27.2
2022-09-11 09:00:00 +0000,2022-09-11 02:00:00 -0700,26.4,26.8
2022-09-11 10:00:00 +0000,2022-09-11 03:00:00 -0700,25.7,26.5
2022-09-11 11:00:00 +0000,2022-09-11 04:00:00 -0700,25.7,26.7
2022-09-11 12:00:00 +0000,2022-09-11 05:00:00 -0700,NA,NA
2022-09-11 13:00:00 +0000,2022-09-11 06:00:00 -0700,NA,NA
2022-09-11 14:00:00 +0000,2022-09-11 07:00:00 -0700,25.8,NA
2022-09-11 15:00:00 +0000,2022-09-11 08:00:00 -0700,25.9,26.4
2022-09-11 16:00:00 +0000,2022-09-11 09:00:00 -0700,26.2,26.3
2022-09-11 17:00:00 +0000,2022-09-11 10:00:00 -0700,24.4,25.8
2022-09-11 18:00:00 +0000,2022-09-11 11:00:00 -0700,24.6,25.5
2022-09-11 19:00:00 +0000,2022-09-11 12:00:00 -0700,24.2,25.3
2022-09-11 20:00:00 +0000,2022-09-11 13:00:00 -0700,24.2,25.1
2022-09-11 21:00:00 +0000,2022-09-11 14:00:00 -0700,24.3,24.9
2022-09-11 22:00:00 +0000,2022-09-11 15:00:00 -0700,24.4,24.8
2022-09-11 23:00:00 +0000,2022-09-11 16:00:00 -0700,24.9,24.7
2022-09-12 00:00:00 +0000,2022-09-11 17:00:00 -0700,25.6,24.8
2022-09-12 01:00:00 +0000,2022-09-11 18:00:00 -0700,43.4,33.1
2022-09-12 02:00:00 +0000,2022-09-11 19:00:00 -0700,53.5,43.8
2022-09-12 03:00:00 +0000,2022-09-11 20:00:00 -0700,46,44.9
2022-09-12 04:00:00 +0000,2022-09-11 21:00:00 -0700,42,43.4
2022-09-12 05:00:00 +0000,2022-09-11 22:00:00 -0700,39.7,41.5
2022-09-12 06:00:00 +0000,2022-09-11 23:00:00 -0700,34.8,38.1
2022-09-12 07:00:00 +0000,2022-09-12 00:00:00 -0700,37.4,37.7
2022-09-12 08:00:00 +0000,2022-09-12 01:00:00 -0700,40.5,39.1
2022-09-12 09:00:00 +0000,2022-09-12 02:00:00 -0700,39.6,39.3
2022-09-12 10:00:00 +0000,2022-09-12 03:00:00 -0700,43.1,41.2
2022-09-12 11:00:00 +0000,2022-09-12 04:00:00 -0700,37.2,39.2
2022-09-12 12:00:00 +0000,2022-09-12 05:00:00 -0700,37.1,38.6
2022-09-12 13:00:00 +0000,2022-09-12 06:00:00 -0700,39.6,38.9
2022-09-12 14:00:00 +0000,2022-09-12 07:00:00 -0700,42.2,39.8
2022-09-12 15:00:00 +0000,2022-09-12 08:00:00 -0700,40,39.7
2022-09-12 16:00:00 +0000,2022-09-12 09:00:00 -0700,39,39.5
2022-09-12 17:00:00 +0000,2022-09-12 10:00:00 -0700,40.4,39.7
2022-09-12 18:00:00 +0000,2022-09-12 11:00:00 -0700,96.1,68
2022-09-12 19:00:00 +0000,2022-09-12 12:00:00 -0700,71.4,69.7
2022-09-12 20:00:00 +0000,2022-09-12 13:00:00 -0700,40.4,55
2022-09-12 21:00:00 +0000,2022-09-12 14:00:00 -0700,32.2,43.6
2022-09-12 22:00:00 +0000,2022-09-12 15:00:00 -0700,36.1,39.8
2022-09-12 23:00:00 +0000,2022-09-12 16:00:00 -0700,36,37.9
2022-09-13 00:00:00 +0000,2022-09-12 17:00:00 -0700,38.1,38
2022-09-13 01:00:00 +0000,2022-09-12 18:00:00 -0700,34.3,36.1
2022-09-13 02:00:00 +0000,2022-09-12 19:00:00 -0700,33.7,34.9
2022-09-13 03:00:00 +0000,2022-09-12 20:00:00 -0700,46.9,40.9
2022-09-13 04:00:00 +0000,2022-09-12 21:00:00 -0700,57.8,49.3
2022-09-13 05:00:00 +0000,2022-09-12 22:00:00 -0700,38,43.6
2022-09-13 06:00:00 +0000,2022-09-12 23:00:00 -0700,37.8,40.7
2022-09-13 07:00:00 +0000,2022-09-13 00:00:00 -0700,38.3,39.8
2022-09-13 08:00:00 +0000,2022-09-13 01:00:00 -0700,34.5,37.4
2022-09-13 09:00:00 +0000,2022-09-13 02:00:00 -0700,34.5,36.3
2022-09-13 10:00:00 +0000,2022-09-13 03:00:00 -0700,35.4,35.9
2022-09-13 11:00:00 +0000,2022-09-13 04:00:00 -0700,35.3,35.6
2022-09-13 12:00:00 +0000,2022-09-13 05:00:00 -0700,35.4,35.5
2022-09-13 13:00:00 +0000,2022-09-13 06:00:00 -0700,35.4,35.4
2022-09-13 14:00:00 +0000,2022-09-13 07:00:00 -0700,34.1,34.9
2022-09-13 15:00:00 +0000,2022-09-13 08:00:00 -0700,30.7,32.8
2022-09-13 16:00:00 +0000,2022-09-13 09:00:00 -0700,26.6,31.4
2022-09-13 17:00:00 +0000,2022-09-13 10:00:00 -0700,26.8,30
2022-09-13 18:00:00 +0000,2022-09-13 11:00:00 -0700,27.9,29.3
2022-09-13 19:00:00 +0000,2022-09-13 12:00:00 -0700,29.7,29.7
2022-09-13 20:00:00 +0000,2022-09-13 13:00:00 -0700,30.3,29.8
2022-09-13 21:00:00 +0000,2022-09-13 14:00:00 -0700,30.2,29.9
2022-09-13 22:00:00 +0000,2022-09-13 15:00:00 -0700,30.9,30.1
2022-09-13 23:00:00 +0000,2022-09-13 16:00:00 -0700,31.3,30.3
2022-09-14 00:00:00 +0000,2022-09-13 17:00:00 -0700,69.5,50.1
2022-09-14 01:00:00 +0000,2022-09-13 18:00:00 -0700,37.3,43.7
2022-09-14 02:00:00 +0000,2022-09-13 19:00:00 -0700,21.8,32.7
2022-09-14 03:00:00 +0000,2022-09-13 20:00:00 -0700,14.9,23.8
2022-09-14 04:00:00 +0000,2022-09-13 21:00:00 -0700,13.8,18.8
2022-09-14 05:00:00 +0000,2022-09-13 22:00:00 -0700,12.3,15.5
2022-09-14 06:00:00 +0000,2022-09-13 23:00:00 -0700,10.9,13.2
2022-09-14 07:00:00 +0000,2022-09-14 00:00:00 -0700,10.1,11.6
2022-09-14 08:00:00 +0000,2022-09-14 01:00:00 -0700,10.2,10.9
2022-09-14 09:00:00 +0000,2022-09-14 02:00:00 -0700,10.7,10.8
2022-09-14 10:00:00 +0000,2022-09-14 03:00:00 -0700,11.1,10.9
2022-09-14 11:00:00 +0000,2022-09-14 04:00:00 -0700,14.6,12.7
2022-09-14 12:00:00 +0000,2022-09-14 05:00:00 -0700,22.2,17.4
2022-09-14 13:00:00 +0000,2022-09-14 06:00:00 -0700,28,22.7
2022-09-14 14:00:00 +0000,2022-09-14 07:00:00 -0700,33.3,28
2022-09-14 15:00:00 +0000,2022-09-14 08:00:00 -0700,43.5,35.7
2022-09-14 16:00:00 +0000,2022-09-14 09:00:00 -0700,44.9,40.3
2022-09-14 17:00:00 +0000,2022-09-14 10:00:00 -0700,26.3,33.3
2022-09-14 18:00:00 +0000,2022-09-14 11:00:00 -0700,23.2,28.2
2022-09-14 19:00:00 +0000,2022-09-14 12:00:00 -0700,27.6,27.9
2022-09-14 20:00:00 +0000,2022-09-14 13:00:00 -0700,39.5,33.7
2022-09-14 21:00:00 +0000,2022-09-14 14:00:00 -0700,30.6,32.1
2022-09-14 22:00:00 +0000,2022-09-14 15:00:00 -0700,32.2,32.1
2022-09-14 23:00:00 +0000,2022-09-14 16:00:00 -0700,42.6,37.3
2022-09-15 00:00:00 +0000,2022-09-14 17:00:00 -0700,28,32.7
2022-09-15 01:00:00 +0000,2022-09-14 18:00:00 -0700,20.1,26.3
2022-09-15 02:00:00 +0000,2022-09-14 19:00:00 -0700,13.6,19.9
2022-09-15 03:00:00 +0000,2022-09-14 20:00:00 -0700,12.4,16.1
2022-09-15 04:00:00 +0000,2022-09-14 21:00:00 -0700,12,14
2022-09-15 05:00:00 +0000,2022-09-14 22:00:00 -0700,8.5,11.2
2022-09-15 06:00:00 +0000,2022-09-14 23:00:00 -0700,8.3,9.7
2022-09-15 07:00:00 +0000,2022-09-15 00:00:00 -0700,8,8.8
2022-09-15 08:00:00 +0000,2022-09-15 01:00:00 -0700,8.2,8.5
2022-09-15 09:00:00 +0000,2022-09-15 02:00:00 -0700,8.2,8.3
2022-09-15 10:00:00 +0000,2022-09-15 03:00:00 -0700,8.1,8.2
2022-09-15 11:00:00 +0000,2022-09-15 04:00:00 -0700,8.2,8.2
2022-09-15 12:00:00 +0000,2022-09-15 05:00:00 -0700,9.2,8.7
2022-09-15 13:00:00 +0000,2022-09-15 06:00:00 -0700,11.4,9.7
2022-09-15 14:00:00 +0000,2022-09-15 07:00:00 -0700,14.1,11.6
2022-09-15 15:00:00 +0000,2022-09-15 08:00:00 -0700,15.8,13.8
2022-09-15 16:00:00 +0000,2022-09-15 09:00:00 -0700,11.8,12.8
2022-09-15 17:00:00 +0000,2022-09-15 10:00:00 -0700,7.4,10.1
2022-09-15 18:00:00 +0000,2022-09-15 11:00:00 -0700,7.1,8.6
2022-09-15 19:00:00 +0000,2022-09-15 12:00:00 -0700,6.9,7.7
2022-09-15 20:00:00 +0000,2022-09-15 13:00:00 -0700,6.8,7.2
2022-09-15 21:00:00 +0000,2022-09-15 14:00:00 -0700,6.8,7
2022-09-15 22:00:00 +0000,2022-09-15 15:00:00 -0700,7,7
2022-09-15 23:00:00 +0000,2022-09-15 16:00:00 -0700,6.6,6.8
2022-09-16 00:00:00 +0000,2022-09-15 17:00:00 -0700,8.8,7.8
2022-09-16 01:00:00 +0000,2022-09-15 18:00:00 -0700,19.5,13.6
2022-09-16 02:00:00 +0000,2022-09-15 19:00:00 -0700,27.1,20.3
2022-09-16 03:00:00 +0000,2022-09-15 20:00:00 -0700,14.1,17.2
2022-09-16 04:00:00 +0000,2022-09-15 21:00:00 -0700,7.9,12.5
2022-09-16 05:00:00 +0000,2022-09-15 22:00:00 -0700,5.3,8.9
2022-09-16 06:00:00 +0000,2022-09-15 23:00:00 -0700,5.9,7.4
2022-09-16 07:00:00 +0000,2022-09-16 00:00:00 -0700,5.6,6.5
2022-09-16 08:00:00 +0000,2022-09-16 01:00:00 -0700,6.3,6.4
2022-09-16 09:00:00 +0000,2022-09-16 02:00:00 -0700,7.3,6.8
2022-09-16 10:00:00 +0000,2022-09-16 03:00:00 -0700,10.5,8.6
2022-09-16 11:00:00 +0000,2022-09-16 04:00:00 -0700,12.7,10.6
2022-09-16 12:00:00 +0000,2022-09-16 05:00:00 -0700,14.6,12.6
2022-09-16 13:00:00 +0000,2022-09-16 06:00:00 -0700,22.2,17.4
2022-09-16 14:00:00 +0000,2022-09-16 07:00:00 -0700,25.9,21.6
2022-09-16 15:00:00 +0000,2022-09-16 08:00:00 -0700,27.2,24.4
2022-09-16 16:00:00 +0000,2022-09-16 09:00:00 -0700,17.9,21.1
2022-09-16 17:00:00 +0000,2022-09-16 10:00:00 -0700,7.2,14.1
2022-09-16 18:00:00 +0000,2022-09-16 11:00:00 -0700,5.1,9.6
2022-09-16 19:00:00 +0000,2022-09-16 12:00:00 -0700,3.9,6.7
2022-09-16 20:00:00 +0000,2022-09-16 13:00:00 -0700,3.5,5.1
2022-09-16 21:00:00 +0000,2022-09-16 14:00:00 -0700,3.8,4.4
2022-09-16 22:00:00 +0000,2022-09-16 15:00:00 -0700,4,4.2
2022-09-16 23:00:00 +0000,2022-09-16 16:00:00 -0700,3.9,4
2022-09-17 00:00:00 +0000,2022-09-16 17:00:00 -0700,3.6,3.8
2022-09-17 01:00:00 +0000,2022-09-16 18:00:00 -0700,2.9,3.3
2022-09-17 02:00:00 +0000,2022-09-16 19:00:00 -0700,3,3.1
2022-09-17 03:00:00 +0000,2022-09-16 20:00:00 -0700,3.3,3.2
2022-09-17 04:00:00 +0000,2022-09-16 21:00:00 -0700,2.2,2.7
2022-09-17 05:00:00 +0000,2022-09-16 22:00:00 -0700,2.2,2.4
2022-09-17 06:00:00 +0000,2022-09-16 23:00:00 -0700,2.2,2.3
2022-09-17 07:00:00 +0000,2022-09-17 00:00:00 -0700,2.3,2.3
2022-09-17 08:00:00 +0000,2022-09-17 01:00:00 -0700,3,2.6
2022-09-17 09:00:00 +0000,2022-09-17 02:00:00 -0700,3.4,2.9
2022-09-17 10:00:00 +0000,2022-09-17 03:00:00 -0700,3.3,3.1
2022-09-17 11:00:00 +0000,2022-09-17 04:00:00 -0700,3,3
2022-09-17 12:00:00 +0000,2022-09-17 05:00:00 -0700,3.4,3.1
2022-09-17 13:00:00 +0000,2022-09-17 06:00:00 -0700,4.1,3.6
2022-09-17 14:00:00 +0000,2022-09-17 07:00:00 -0700,5.2,4.4
2022-09-17 15:00:00 +0000,2022-09-17 08:00:00 -0700,7.7,6
2022-09-17 16:00:00 +0000,2022-09-17 09:00:00 -0700,5,5.5
2022-09-17 17:00:00 +0000,2022-09-17 10:00:00 -0700,3.3,4.4
2022-09-17 18:00:00 +0000,2022-09-17 11:00:00 -0700,3,3.7
2022-09-17 19:00:00 +0000,2022-09-17 12:00:00 -0700,2.8,3.2
2022-09-17 20:00:00 +0000,2022-09-17 13:00:00 -0700,3,3.1
2022-09-17 21:00:00 +0000,2022-09-17 14:00:00 -0700,4.2,3.6
2022-09-17 22:00:00 +0000,2022-09-17 15:00:00 -0700,6.5,5
2022-09-17 23:00:00 +0000,2022-09-17 16:00:00 -0700,5.3,5.1
2022-09-18 00:00:00 +0000,2022-09-17 17:00:00 -0700,3.9,4.5
2022-09-18 01:00:00 +0000,2022-09-17 18:00:00 -0700,3.4,3.9
2022-09-18 02:00:00 +0000,2022-09-17 19:00:00 -0700,13.7,8.8
2022-09-18 03:00:00 +0000,2022-09-17 20:00:00 -0700,20.9,14.8
2022-09-18 04:00:00 +0000,2022-09-17 21:00:00 -0700,12.3,13.5
2022-09-18 05:00:00 +0000,2022-09-17 22:00:00 -0700,6.3,9.9
2022-09-18 06:00:00 +0000,2022-09-17 23:00:00 -0700,4.2,7
2022-09-18 07:00:00 +0000,2022-09-18 00:00:00 -0700,3.9,5.4
2022-09-18 08:00:00 +0000,2022-09-18 01:00:00 -0700,4,4.7
2022-09-18 09:00:00 +0000,2022-09-18 02:00:00 -0700,4.2,4.4
2022-09-18 10:00:00 +0000,2022-09-18 03:00:00 -0700,4.6,4.5
2022-09-18 11:00:00 +0000,2022-09-18 04:00:00 -0700,5.1,4.8
2022-09-18 12:00:00 +0000,2022-09-18 05:00:00 -0700,6,5.4
2022-09-18 13:00:00 +0000,2022-09-18 06:00:00 -0700,6.5,5.9
2022-09-18 14:00:00 +0000,2022-09-18 07:00:00 -0700,6.5,6.2
2022-09-18 15:00:00 +0000,2022-09-18 08:00:00 -0700,6.6,6.4
2022-09-18 16:00:00 +0000,2022-09-18 09:00:00 -0700,5.6,6
2022-09-18 17:00:00 +0000,2022-09-18 10:00:00 -0700,6.7,6.2
2022-09-18 18:00:00 +0000,2022-09-18 11:00:00 -0700,8.6,7.4
2022-09-18 19:00:00 +0000,2022-09-18 12:00:00 -0700,7.8,7.6
2022-09-18 20:00:00 +0000,2022-09-18 13:00:00 -0700,7.1,7.3
2022-09-18 21:00:00 +0000,2022-09-18 14:00:00 -0700,7.3,7.3
2022-09-18 22:00:00 +0000,2022-09-18 15:00:00 -0700,8.8,7.9
2022-09-18 23:00:00 +0000,2022-09-18 16:00:00 -0700,8.6,8.1
2022-09-19 00:00:00 +0000,2022-09-18 17:00:00 -0700,8.9,8.4
2022-09-19 01:00:00 +0000,2022-09-18 18:00:00 -0700,8.9,8.6
2022-09-19 02:00:00 +0000,2022-09-18 19:00:00 -0700,9.1,8.8
2022-09-19 03:00:00 +0000,2022-09-18 20:00:00 -0700,12.1,10.5
2022-09-19 04:00:00 +0000,2022-09-18 21:00:00 -0700,10.7,10.4
2022-09-19 05:00:00 +0000,2022-09-18 22:00:00 -0700,11.3,10.7
2022-09-19 06:00:00 +0000,2022-09-18 23:00:00 -0700,10.8,10.7
2022-09-19 07:00:00 +0000,2022-09-19 00:00:00 -0700,10.2,10.5
2022-09-19 08:00:00 +0000,2022-09-19 01:00:00 -0700,11.7,11
2022-09-19 09:00:00 +0000,2022-09-19 02:00:00 -0700,11.1,10.9
2022-09-19 10:00:00 +0000,2022-09-19 03:00:00 -0700,10.9,10.9
2022-09-19 11:00:00 +0000,2022-09-19 04:00:00 -0700,11,10.9
2022-09-19 12:00:00 +0000,2022-09-19 05:00:00 -0700,12.2,11.3
2022-09-19 13:00:00 +0000,2022-09-19 06:00:00 -0700,12,11.4
2022-09-19 14:00:00 +0000,2022-09-19 07:00:00 -0700,12,11.5
2022-09-19 15:00:00 +0000,2022-09-19 08:00:00 -0700,NA,NA
